This demonstration page uses our WeatherBlox Daily Observations layout. Learn more.

Left ArrowRight Arrow

39.51506, -84.39828

Hourly Observations for May 23, 2018

Temp ( °F °C ) Dew Point ( °F °C ) Humidity (%) Winds ( mph kmh ) Pressure ( in mb ) Visibility ( mi km ) Precip ( " mm )
12:15 am 00:15 Clear 68 19.9 61 15.9 78 78 N 5 7 30.03 1017 10 16 N/A
12:35 am 00:35 Clear 67 19.2 60 15.8 81 81 N 3 6 30.03 1017 10 16 N/A
12:55 am 00:55 Clear 66 18.7 60 15.6 82 82 N 3 6 30.03 1017 10 16 N/A
1:15 am 01:15 Clear 65 18.5 60 15.6 83 83 N 3 6 30.03 1017 10 16 N/A
1:35 am 01:35 Clear 64 18 60 15.6 86 86 N 3 6 30.03 1017 10 16 N/A
1:55 am 01:55 Clear 64 17.6 60 15.5 88 88 N 3 6 30.03 1017 10 16 N/A
2:15 am 02:15 Clear 63 17.2 60 15.7 91 91 N 3 6 30.03 1017 10 16 N/A
2:35 am 02:35 Clear 62 16.7 60 15.4 92 92 N N/A 30.03 1017 10 16 N/A
2:55 am 02:55 Clear 62 16.5 60 15.3 93 93 NNW 3 6 30.03 1017 10 16 N/A
3:15 am 03:15 Clear 61 16.2 59 15.2 94 94 N 3 6 30.03 1017 10 16 N/A
3:35 am 03:35 Clear 61 16 59 14.9 93 93 N N/A 30.09 1019 10 16 N/A
3:55 am 03:55 Clear 60 15.3 58 14.7 96 96 N 3 6 30.06 1018 10 16 N/A
4:15 am 04:15 Clear 60 15.6 58 14.7 94 94 NNE 5 7 30.09 1019 10 16 N/A
4:35 am 04:35 Clear 61 15.9 58 14.7 93 93 N N/A 30.09 1019 10 16 N/A
4:55 am 04:55 Clear 60 15.6 58 14.6 94 94 N N/A 30.09 1019 10 16 N/A
5:15 am 05:15 Partly Cloudy 60 15.3 58 14.7 96 96 N N/A 30.09 1019 10 16 N/A
5:35 am 05:35 Cloudy 60 15.3 58 14.6 96 96 N N/A 30.09 1019 10 16 N/A
5:55 am 05:55 Cloudy 60 15.6 58 14.7 94 94 N N/A 30.12 1020 10 16 N/A
6:15 am 06:15 Cloudy 60 15.6 58 14.6 94 94 N N/A 30.12 1020 10 16 N/A
6:35 am 06:35 Partly Cloudy 59 15.2 58 14.5 96 96 N N/A 30.12 1020 10 16 N/A
6:55 am 06:55 Sunny 59 15.1 58 14.4 96 96 N 5 7 30.12 1020 10 16 N/A
7:15 am 07:15 Sunny 60 15.6 58 14.7 94 94 N 3 6 30.12 1020 10 16 N/A
7:35 am 07:35 Mostly Cloudy 61 16 59 15.1 94 94 N 6 9 30.15 1021 10 16 N/A
7:55 am 07:55 Partly Cloudy 62 16.6 60 15.4 93 93 N 3 6 30.15 1021 10 16 N/A
8:15 am 08:15 Sunny 64 18 60 15.8 87 87 N 6 9 30.12 1020 10 16 N/A
8:35 am 08:35 Sunny 66 18.7 60 15.7 83 83 N 8 13 30.12 1020 10 16 N/A
8:55 am 08:55 Sunny 66 18.9 59 14.9 78 78 NNE 12 19 30.12 1020 10 16 N/A
9:15 am 09:15 Partly Cloudy 67 19.2 59 15.1 77 77 N 10 17 30.12 1020 10 16 N/A
9:35 am 09:35 Partly Cloudy 66 18.9 59 15 78 78 NNE 7 11 30.12 1020 10 16 N/A
9:55 am 09:55 Mostly Cloudy 68 20 60 15.5 75 75 NE 8 13 30.15 1021 10 16 N/A
10:15 am 10:15 Mostly Cloudy 68 19.9 60 15.6 76 76 N 9 15 30.15 1021 10 16 N/A
10:35 am 10:35 Sunny 69 20.4 60 15.5 74 74 NE 7 11 30.15 1021 10 16 N/A
10:55 am 10:55 Sunny 70 21.1 60 15.4 70 70 N 8 13 30.15 1021 10 16 N/A
11:15 am 11:15 Sunny 70 21.3 60 15.4 69 69 N 7 11 30.15 1021 10 16 N/A
11:35 am 11:35 Sunny 72 22.1 60 15.8 68 68 ENE 9 15 30.15 1021 10 16 N/A
11:55 am 11:55 Sunny 72 22.4 60 15.6 66 66 NNE 7 11 30.15 1021 10 16 N/A
12:15 pm 12:15 Sunny 73 22.9 59 15 61 61 NNE 10 17 30.15 1021 10 16 N/A
12:35 pm 12:35 Sunny 73 23 59 14.8 60 60 NE 10 17 30.15 1021 10 16 N/A
12:55 pm 12:55 Sunny 74 23.4 58 14.6 58 58 NE 8 13 30.15 1021 10 16 N/A
1:15 pm 13:15 Sunny 74 23.3 57 14 56 56 NE 8 13 30.15 1021 10 16 N/A
1:35 pm 13:35 Sunny 75 23.7 58 14.7 57 57 N 7 11 30.15 1021 10 16 N/A
1:55 pm 13:55 Sunny 75 24 58 14.5 55 55 N 8 13 30.15 1021 10 16 N/A
2:15 pm 14:15 Sunny 76 24.5 58 14.5 54 54 NNE 10 17 30.15 1021 10 16 N/A
2:35 pm 14:35 Sunny 77 25 58 14.3 52 52 ENE 7 11 30.12 1020 10 16 N/A
2:55 pm 14:55 Sunny 78 25.3 58 14.5 51 51 ESE 6 9 30.12 1020 10 16 N/A
3:15 pm 15:15 Sunny 78 25.3 59 14.9 53 53 ENE 6 9 30.12 1020 7 11 N/A
3:35 pm 15:35 Sunny 79 25.9 57 14 48 48 NE 8 13 30.12 1020 10 16 N/A
3:55 pm 15:55 Sunny 78 25.8 56 13.4 46 46 NNE 5 7 30.12 1020 10 16 N/A
4:15 pm 16:15 Sunny 78 25.6 55 12.9 45 45 NE 8 13 30.12 1020 10 16 N/A
4:35 pm 16:35 Sunny 79 26.1 57 14 47 47 ENE 7 11 30.12 1020 10 16 N/A
4:55 pm 16:55 Sunny 79 25.9 57 13.9 48 48 N 12 19 30.12 1020 10 16 N/A
5:15 pm 17:15 Sunny 79 25.9 56 13.6 47 47 NE 7 11 30.12 1020 10 16 N/A
5:35 pm 17:35 Sunny 79 25.9 55 13 45 45 N 12 19 30.12 1020 10 16 N/A
5:55 pm 17:55 Sunny 79 25.9 56 13.2 45 45 NNE 8 13 30.12 1020 10 16 N/A
6:15 pm 18:15 Sunny 78 25.8 56 13.3 46 46 N 6 9 30.09 1019 10 16 N/A
6:35 pm 18:35 Sunny 78 25.6 56 13.3 47 47 NE 6 9 30.09 1019 7 11 N/A
6:55 pm 18:55 Sunny 78 25.4 56 13.3 47 47 N 8 13 30.09 1019 10 16 N/A
7:15 pm 19:15 Sunny 77 25.1 56 13.1 47 47 NNE 7 11 30.09 1019 10 16 N/A
7:35 pm 19:35 Sunny 76 24.5 56 13.1 49 49 NNE 7 11 30.09 1019 10 16 N/A
7:55 pm 19:55 Sunny 75 24.1 57 13.7 52 52 ENE 8 13 30.09 1019 10 16 N/A
8:15 pm 20:15 Sunny 73 22.9 55 12.9 53 53 ENE 7 11 30.12 1020 10 16 N/A
8:35 pm 20:35 Sunny 71 21.6 56 13.6 61 61 ENE 6 9 30.12 1020 10 16 N/A
8:55 pm 20:55 Clear 71 21.4 57 13.9 62 62 ENE 5 7 30.12 1020 10 16 N/A
9:15 pm 21:15 Clear 67 19.3 59 15.2 77 77 N 3 6 30.12 1020 10 16 N/A
9:35 pm 21:35 Clear 65 18.4 60 15.4 83 83 NNW 3 6 30.12 1020 10 16 N/A
9:55 pm 21:55 Clear 64 17.5 59 15.2 86 86 N 5 7 30.12 1020 10 16 N/A
10:15 pm 22:15 Clear 62 16.8 58 14.2 85 85 N 5 7 30.18 1022 10 16 N/A
10:35 pm 22:35 Clear 63 17.4 57 14.1 81 81 N 3 6 30.15 1021 10 16 N/A
10:55 pm 22:55 Clear 62 16.5 57 14 85 85 N 6 9 30.18 1022 10 16 N/A
11:15 pm 23:15 Clear 62 16.7 58 14.2 85 85 N 3 6 30.18 1022 10 16 N/A
11:35 pm 23:35 Clear 61 16.2 57 13.9 86 86 N 3 6 30.18 1022 10 16 N/A
11:55 pm 23:55 Clear 60 15.5 57 14 91 91 N 3 6 30.18 1022 10 16 N/A

Powered by AerisWeather